Regional Weather Roundup
Issued by NWS Wakefield, VA

Home | Current Version | Previous Version | Text Only | Print | Product List | Glossary On
Versions: 1 2 3 4 5 6 7 8 9 10 11 12 13 14 15 16 17 18 19 20 21 22 23 24 25 26 27 28 29 30 31 32 33 34 35 36 37 38 39 40 41 42 43 44 45 46 47 48 49 50
000
ASUS41 KAKQ 221610
RWRAKQ

REGIONAL WEATHER ROUNDUP
NATIONAL WEATHER SERVICE WAKEFIELD VA
1200 PM EDT FRI AUG 22 2014

Note: "fair" indicates few or no clouds below 12,000 feet with no
significant weather and/or obstructions to visibility. * = Denotes
station may not report precipitation (e.g., rain,snow,etc.),
thunder or fog.

VAZ042-051-052>054-056-221700-
NORTHERN VIRGINIA

CITY           SKY/WX    TMP DP  RH WIND       PRES   REMARKS
WASH NATIONAL  LGT RAIN  79  69  71 NE6G21    30.00S
DULLES         CLOUDY    75  67  76 NE5       30.01S
FORT BELVOIR   CLOUDY    78  70  76 CALM      30.01R
QUANTICO       CLOUDY    79  68  69 N5        30.00S
FREDERICKSBRG* CLOUDY    79  68  70 NE5       29.99S
STAFFORD*      CLOUDY    77  73  86 N5        30.04S
WARRENTON      CLOUDY    78  73  86 CALM      30.02R
CULPEPER*      DRIZZLE  N/A N/A N/A W5        30.02S
MANASSAS*      SUNNY     79  70  73 NE5       30.01S
LEESBURG*      CLOUDY    75  72  88 CALM      30.03S
WINCHESTER     RAIN      72  70  94 SW5       30.04S
$$

VAZ048-049-060>072-079>083-221700-
CENTRAL AND SOUTH CENTRAL VIRGINIA...AND NORTH CENTRAL NORTH CAROLINA

CITY           SKY/WX    TMP DP  RH WIND       PRES   REMARKS
RICHMOND       CLOUDY    82  67  60 N5        30.00S
CHESTERFIELD*  PTSUNNY   82  63  51 NW7       30.01F
HANOVER        PTSUNNY   80  69  69 CALM      30.01F
TAPPAHANNOCK*  LGT RAIN  80  67  65 NW5       29.99F
CHARLOTTSVILLE CLOUDY    74  71  91 CALM      30.03R
ORANGE*        CLOUDY    73  70  88 CALM      30.04R
LOUISA*        DRIZZLE   75  70  83 N6        30.02R
FARMVILLE*     CLOUDY    79  75  89 S3        30.00F
SOUTH HILL*    CLOUDY    84  72  65 N3        30.07S
ROANOKE RAPIDS CLOUDY    81  70  69 NW3       30.01S
RALEIGH        PTSUNNY   88  72  58 NW3       30.03S
$$

VAZ088>098-221700-
SOUTHEAST VIRGINIA

CITY           SKY/WX    TMP DP  RH WIND       PRES   REMARKS
NORFOLK        MOSUNNY   85  68  56 VRB5      29.96F
VIRGINIA BEACH PTSUNNY   84  70  62 NW10      29.96S
NORFOLK NAVAL  PTSUNNY   83  72  69 VRB7      29.98F
WEST POINT*    CLOUDY    83  67  58 W6        29.99F
NEWPORT NEWS   PTSUNNY   87  69  54 NW7       29.97F
LANGLEY AFB    MOSUNNY   84  70  61 NW9       29.96F
FORT EUSTIS    PTSUNNY   81  66  60 NW7       29.96F
WILLIAMSBURG*  PTSUNNY   86  72  62 NW3       29.98F
FRANKLIN*      PTSUNNY   84  68  58 CALM      29.98F
WAKEFIELD      PTSUNNY   84  68  58 CALM      29.98F
$$

VAZ020-022-025-037-045-221700-
WESTERN AND SOUTHWEST VIRGINIA

CITY           SKY/WX    TMP DP  RH WIND       PRES   REMARKS
STAUNTON*      PTSUNNY   75  70  84 SE3       30.06F
HOT SPRINGS VA CLOUDY    64  64 100 W14       30.19R FOG
LYNCHBURG      CLOUDY    77  73  88 SW5       30.06F
DANVILLE       PTSUNNY   84  72  67 CALM      30.04S
MARTINSVILLE   RAIN      82  73  75 CALM      30.08S
ROANOKE        CLOUDY    74  70  87 W7        30.09R
BLACKSBURG     CLOUDY    73  73 100 SW3       30.14F
DUBLIN*        CLOUDY    79  72  79 W8        30.13F
MARION*        CLOUDY    75  71  89 W9        30.19S
HILLSVILLE*    CLOUDY    75  69  80 W8G16     30.17S
RICHLANDS*     CLOUDY    78  72  83 W8        30.18S
WISE*          PTSUNNY   79  72  78 W10       30.19S
ABINGDON*      CLOUDY    77  73  88 W8        30.16F
$$

MDZ021>025-VAZ099-100-221700-
SOUTHERN MARYLAND AND THE DELMARVA PENINSULA

CITY           SKY/WX    TMP DP  RH WIND       PRES   REMARKS
PATUXENT RIVER LGT RAIN  79  71  76 N6        29.97F
BAY BRIDGE APT   N/A     77  70  78 N7        29.99S
LEONARDTOWN    PTSUNNY   77  70  78 N3        30.00S
DOVER          PTSUNNY   78  73  84 NE8       29.98F
GEORGETOWN     PTSUNNY   81  72  74 NE16      29.98S
EASTON         NOT AVBL
CAMBRIDGE      MOSUNNY   79  68  69 N3        29.97S
SALISBURY      PTSUNNY   84  71  65 VRB5      29.96F
OCEAN CITY     MOSUNNY   80  73  79 E9        29.96F
WALLOPS ISLAND MOSUNNY   84  72  67 E3        29.96F
ACCOMACK*      MOSUNNY   82  72  69 NW7       29.96S
$$

NCZ012>017-030>032-221700-
EASTERN NORTH CAROLINA

CITY           SKY/WX    TMP DP  RH WIND       PRES   REMARKS
ELIZABETH CITY MOSUNNY   85  71  63 NW6       29.98S
AHOSKIE*       CLOUDY    81  71  69 N5        30.00F
EDENTON*       MOSUNNY   84  71  65 N6        29.99S
CURRITUCK*     MOSUNNY   88  69  53 NW5       29.98S
KILL DEVIL HLS MOSUNNY   82  73  74 W6        29.97S
MANTEO         MOSUNNY   82  73  74 W10       29.98F
CAPE HATTERAS  PTSUNNY   83  73  72 W8        29.99S
GOLDSBORO      MOSUNNY   89  76  65 W10       29.98F HX 100
WASHINGTON     SUNNY     86  71  61 N6        30.00F
GREENVILLE     MOSUNNY   88  73  62 N6        30.01F HX  96
NEW BERN       MOSUNNY   92  72  51 NW9       30.00F HX  99
WILMINGTON     MOSUNNY   91  72  53 NW8       30.02F HX  98
$$

VAZ048-221700-
ELSEWHERE

CITY           SKY/WX    TMP DP  RH WIND       PRES   REMARKS
HARRISBURG PA  CLOUDY    76  68  76 CALM      30.01S
BALTIMORE      CLOUDY    78  68  71 CALM      29.99F
ANNAPOLIS        N/A     77  69  76 MISG      29.99S
ANDREWS AFB    DRIZZLE   76  72  87 NE5       30.00S
WILMINGTON DE  CLOUDY    74  66  76 E8        30.02F
PHILADELPHIA   CLOUDY    75  67  76 E9        30.02F
WILDWOOD NJ*   CLOUDY    75  66  73 E9        30.01S
ATLANTIC CITY  CLOUDY    73  68  84 E10       30.01F
HENDERSON NC   MOSUNNY   83  71  66 N5        30.04R
GREENSBORO     CLOUDY    88  71  57 NW9       30.05F
ROCKY MOUNT    MOSUNNY   88  72  58 NW9       30.00F
FAYETTEVILLE   MOSUNNY   93  70  46 N8        30.01F HX  99
CHARLOTTE      CLOUDY    91  67  44 VRB6      30.06F
$$

VAZ100-221700-
MARINE

STATION/POSITION TIME  TEMP    WIND        PRES    WAVE   SWELL
                       AIR SEA DIR/SP/G            HT/PER HT/PER
                 (UTC) (F)     (DEG/KT/KT) (MB)    (FT/S) (FT/S)
44066 TX TWR #4  1600   72 72   70/ 12/ 12   N/A     3/ 7   3/ 7
CAPE MAY NJ      1600   76 80   80/  7/ 10 1015.0F
LEWES DE         1600   74 75   90/ 10/ 12 1015.1S
15NM E FENWICK I 1600   74 76              1014.8F   3/ 7
OCEAN-CITY-INLET 1600   77 77   80/ 11/ 15 1014.3F
WACHAPREAGUE VA  1600   83 81  350/  3/  6 1014.3F
THOMAS POINT MD  1600   75 78   20/ 10/ 11 1016.0S
GOOSES REEF MD   1600   76      20/  6/  8 1015.7F
COVE POINT MD    1600   75     350/  8/  9 1015.1R
SOLOMONS ISLAND  1600      80                N/A
BISHOPS HEAD MD  1600   79 80   50/  4/  6 1014.4F
PINEY POINT MD   1600          300/  6/  7   N/A
POTOMAC MD       1600   78      40/  8/  8 1014.4S
CAMBRIDGE MD     1600   77 79   10/  2/  3 1014.8S
LEWISETTA VA     1600   79 80  360/  1/  2 1014.7F
RAPPAHANNOCK LGT 1600          320/ 12/ 12 1015.3R
STINGRAY PT      1600   79      20/  6/  8 1015.6S
YORK RVR RNG VA  1600   81     280/  7/ 11 1014.4S
YORKTOWN VA      1600   80 81  320/  8/ 10 1014.7S
JAMESTOWN VA     1600   78     310/  6/  8   N/A
DOMINION TERM VA 1600   80     310/ 10/ 12 1014.9F
KIPTOPEKE VA     1600      82  340/ 11/ 12   N/A
CHES BAY BRIDGE  1600   80 80  320/  9/ 10 1014.3F
CAPE HENRY VA    1600   79     320/ 11/ 13 1013.7F
CHESAPEAKE LGHT  1500   80     310/ 13/ 14 1015.4R
WILLOUBY STN VA  1600   81     280/ 10/ 11 1013.7F
S CRANEY ISL VA  1600          310/  6/  9 1014.6F
CAPE HENRY BUOY  1600      78                N/A     2/ 7
1ST LANDING BUOY 1600   79     330/ 10/ 12 1014.5F
CAPE CHARLES BUO 1600      78                N/A     2/ 7   2/ 7
OFFSHORE WE BUOY 1600      78                N/A     2/ 7   2/ 7
64NM E OF VA BCH 1600   78 79  310/ 10/ 12 1014.2R   2/ 7   2/ 7
DUCK PIER NC     1600   81 79  330/  7/  9 1014.3S
44056 DUCK FRF   1600                        N/A     1/ 7
OREGON INLET NC  1600   83 83  270/  8/ 10 1015.0F
HATTERAS NC      1600   83 82  280/  9/ 12 1016.1R
DIAMOND SHLS NC  1600   79     280/  6/  8 1015.5S   2/ 8   2/ 8
CAPE LOOKOUT NC  1500   85     270/  9/ 11 1016.1S
$$



USA.gov is the U.S. government's official web portal to all federal, state and local government web resources and services.